Location: Tucson
(32.2217°N, 110.9265°W)
Time: 04:08:28
(UTC-07:00)

N. Korean satellite - Visible Passes

Search period start: 15 December 2019 00:00
Search period end: 25 December 2019 00:00
Orbit: 455 x 507 km, 97.2° (Epoch: 14 December)

Date Brightness Start Highest point End Pass type
(mag) Time Alt. Az. Time Alt. Az. Time Alt. Az.
15 Dec 9.5 05:24:20 10° NE 05:26:38 17° E 05:28:55 10° SE visible
16 Dec 6.8 06:31:20 10° N 06:34:35 41° WNW 06:37:49 10° SSW visible
16 Dec 10.1 18:37:00 10° WSW 18:38:33 12° W 18:40:07 10° WNW visible
17 Dec 6.6 06:05:46 10° NNE 06:09:13 75° E 06:12:36 10° S visible
17 Dec 9.1 18:09:52 10° SSW 18:13:00 26° W 18:16:10 10° NW visible
18 Dec 8.5 05:40:42 10° NE 05:43:44 29° E 05:46:44 10° SSE visible
18 Dec 7.2 17:43:54 10° S 17:47:32 63° W 17:51:10 10° NNW visible
19 Dec 9.8 05:16:34 10° ENE 05:18:10 13° E 05:19:47 10° ESE visible
19 Dec 7.6 06:48:45 10° NNW 06:51:31 23° WNW 06:54:17 10° SW visible
20 Dec 6.5 06:22:49 10° N 06:26:12 56° WNW 06:29:32 10° SSW visible
20 Dec 9.8 18:27:52 10° SW 18:30:08 16° W 18:32:23 10° WNW visible
21 Dec 7.2 05:57:25 10° NNE 06:00:47 54° E 06:04:07 10° S visible
21 Dec 8.6 18:01:15 10° SSW 18:04:36 34° W 18:07:56 10° NNW visible
22 Dec 9.0 05:32:32 10° NE 05:35:16 22° E 05:37:59 10° SSE visible
23 Dec 7.2 06:40:06 10° NNW 06:43:08 30° WNW 06:46:09 10° SW visible
24 Dec 6.3 06:14:21 10° N 06:17:46 77° WNW 06:21:09 10° SSW visible
24 Dec 9.6 18:18:58 10° SW 18:21:41 20° W 18:24:23 10° NW visible
